sat.trackr.live / text

‹ back to catalog

STARLINK-1036

NORAD 44741 · 2019-074AE

PAYLOAD ACTIVE UNKNOWN

§ Identity

Operator
Country
US
Launch date
2019-11-11
Launch site
AFETR
Launch vehicle
Mass (kg)
RCS (m²)

Purposes: comms

External: N2YO · Heavens-Above · Gunter

§ Orbital elements

Epoch: 2026-09-12T06:00:02.000160Z

Period
90.62 min
Inclination
53.0377°
Eccentricity
0.0004907
Mean motion
15.89089900 rev/d
Perigee alt
301.6 km
Apogee alt
308.1 km
Semi-major
6,683.0 km
B*
5.0221e-4
RAAN
343.6593°
Arg perigee
337.5398°
Mean anomaly
41.2839°
Rev number
603

§ Raw data

STARLINK-10361 44741U 19074AE  26255.25002315  .00149029  00000+0  50221-3 0  99962 44741  53.0377 343.6593 0004907 337.5398  41.2839 15.89089900  6033

JSON: /api/v1/satellites/44741 · /tle

For live sub-satellite position, see the globe view (requires WebGL).

§ Visibility from observer

Set your observer location to see the next 7 days of passes ≥ 10°. The values pass through the URL so the page stays shareable.

No JS? Fill the form by hand. The geolocation button needs JavaScript.